Wind_Speed
7 8 5 3 3 5 6 6 6 2 3 7 5 4 4 5 7 10 15 15 9 6 6 10 13 16 18 19 21 26 29 30 30 31 27 25 24 23 23 22 22 23 23 22
7 7 2 3 5 7 7 7 4 0 1 7 5 1 3 4 5 8 13 16 15 11 8 7 9 11 13 16 19 22 26 31 33 32 33 24 22 22 22 23 24 26 27 27
7 7 2 5 8 9 9 8 4 8 4 5 7 8 3 4 3 5 10 11 14 14 10 7 4 5 8 11 16 20 21 22 29 31 28 27 22 22 24 27 28 31 30 30
3 3 5 6 5 7 4 2 6 7 7 4 4 5 10 4 2 4 7 9 12 12 11 9 7 5 3 3 8 18 21 24 25 26 32 31 32 31 35 28 26 28 33 33
7 3 4 3 7 3 7 5 4 6 10 6 10 7 5 6 4 3 7 8 10 9 10 8 7 7 6 5 3 4 15 20 23 25 31 36 39 31 33 26 25 29 29 33
6 1 3 3 2 2 3 7 8 8 9 10 2 5 9 2 4 3 4 6 8 9 8 8 7 6 6 6 7 7 7 14 18 26 29 36 37 37 31 31 29 25 26 28
6 5 4 2 8 5 9 9 6 5 5 6 5 6 10 6 3 2 4 6 9 8 7 7 7 7 7 7 7 7 7 9 15 22 28 33 38 41 42 36 30 27 26 28
6 7 7 2 5 6 4 8 6 10 11 10 6 6 2 3 2 2 4 5 7 7 8 8 7 7 8 9 10 11 8 10 12 18 27 31 32 34 31 35 34 31 30 31
4 4 6 4 1 5 4 6 7 11 11 8 11 1 9 4 5 3 6 7 8 9 9 9 9 9 10 12 14 13 12 13 13 14 18 26 32 33 32 32 32 34 33 28
3 6 6 6 3 3 6 2 7 5 7 8 3 4 10 7 2 7 9 12 12 12 13 12 12 13 13 14 12 13 13 14 15 11 12 16 21 28 31 32 31 32 32 33
3 5 7 4 9 6 5 9 4 6 5 9 12 4 6 4 10 12 15 16 15 12 13 14 15 15 15 14 13 13 12 13 12 12 11 13 16 19 26 29 27 32 32 34
3 6 9 10 6 3 8 9 6 7 9 7 7 12 7 6 8 18 20 20 13 13 13 15 17 17 16 15 14 13 12 11 11 11 13 14 17 20 22 21 25 27 30 29
1 5 8 12 11 9 9 8 8 7 9 14 12 10 2 7 16 14 11 11 13 15 16 16 16 16 16 15 13 12 11 11 10 12 12 14 17 21 26 24 25 25 28 28
2 7 9 11 11 9 8 10 12 12 10 15 15 19 15 18 13 12 10 12 13 16 17 17 17 16 16 15 15 14 13 13 13 15 16 15 14 19 25 23 21 22 23 27
4 9 10 11 13 12 13 16 17 18 19 19 20 22 20 13 10 10 10 14 16 18 19 17 16 16 16 16 15 12 13 12 12 13 14 14 13 14 20 23 24 23 25 23
3 9 9 15 15 15 18 19 20 21 23 22 20 17 6 4 6 12 13 14 17 19 18 16 15 17 17 15 16 13 11 11 11 10 11 11 8 11 14 20 25 25 24 21
5 9 10 16 14 10 14 21 19 14 13 10 11 12 8 11 12 12 14 16 16 17 16 17 19 18 16 12 10 11 11 12 11 10 8 9 8 7 5 9 14 18 20 23
10 10 10 12 12 16 3 3 5 9 10 10 10 9 8 8 10 16 13 12 16 18 17 20 18 16 11 9 9 10 12 11 9 9 9 8 5 4 6 10 8 9 13 17
12 11 11 8 11 13 12 9 6 7 10 4 7 5 9 9 14 20 4 13 18 20 21 19 17 14 10 8 8 9 9 7 7 8 6 5 5 4 3 2 4 9 12 11
7 7 8 10 10 11 3 6 3 2 12 8 3 9 12 13 11 9 20 22 23 23 20 19 15 10 8 8 6 5 6 4 5 5 6 7 6 6 6 5 2 3 6 8
10 11 11 11 11 9 4 4 2 8 4 7 9 11 14 13 16 22 24 24 23 23 20 16 11 10 6 5 3 4 3 1 2 6 8 8 9 9 8 8 5 1 3 5
11 9 9 9 12 14 8 3 7 10 15 14 14 15 16 16 20 22 22 22 23 21 18 11 8 8 7 7 6 4 3 3 1 3 4 5 8 8 9 9 10 9 5 5
11 11 9 7 2 4 1 8 16 17 19 19 15 13 14 17 20 20 20 21 22 21 16 10 8 8 10 9 5 5 5 4 1 3 4 3 4 6 9 10 12 7 7 7
9 8 9 11 12 14 13 18 15 14 13 13 12 13 14 16 17 18 20 21 20 16 13 11 10 10 11 9 7 8 6 4 4 3 5 4 3 3 3 5 7 7 8 8
9 0 8 13 13 21 17 16 20 19 12 10 12 12 13 14 15 16 20 20 17 16 14 13 12 11 13 12 10 7 5 5 5 5 6 5 2 0 2 3 6 8 10 9
14 16 12 13 18 20 20 16 17 15 13 12 12 14 13 13 15 16 17 16 15 15 12 12 14 10 9 11 9 8 7 7 5 5 5 4 3 2 1 0 2 4 6 8
Wind_Direction
201 233 206 33 341 322 309 300 301 68 32 297 44 27 37 39 38 47 57 51 67 103 141 178 186 193 199 199 203 212 213 217 216 221 216 212 213 216 217 218 222 224 222 219
195 226 88 304 283 269 268 287 280 131 99 287 8 88 76 58 51 43 56 58 61 83 104 149 176 197 205 212 210 220 223 225 227 224 224 217 218 220 219 219 221 223 226 227
282 77 335 262 256 250 232 271 331 311 318 228 295 194 141 109 136 90 70 71 69 69 79 88 130 183 206 214 219 224 234 243 238 223 234 223 224 223 224 218 221 227 226 228
236 74 299 296 255 248 229 349 279 275 280 324 333 318 171 137 148 155 103 74 71 69 67 68 69 88 133 192 228 234 236 237 235 232 226 232 245 223 229 222 220 222 231 228
97 243 255 281 27 296 56 344 321 275 267 284 221 270 126 148 202 130 89 69 60 55 58 58 60 54 38 29 347 256 242 242 233 227 231 235 232 231 238 224 221 228 230 231
282 251 265 353 139 343 321 254 232 237 256 265 6 280 288 22 33 140 95 49 24 20 30 45 48 39 25 7 354 326 281 262 254 236 232 233 229 227 228 231 223 222 222 227
185 183 130 258 219 206 261 300 286 256 247 297 79 277 268 35 93 75 15 358 1 5 11 15 17 20 14 358 345 335 292 266 253 245 239 237 232 233 231 224 227 223 223 223
257 184 195 57 356 343 348 333 300 296 295 308 152 262 104 54 143 90 345 325 332 343 347 349 352 0 359 354 347 337 308 291 276 262 249 242 241 233 233 233 227 229 227 228
227 199 132 82 87 302 100 279 0 281 237 262 259 268 232 152 191 285 324 325 331 327 330 333 334 338 341 339 336 335 325 317 312 289 261 241 238 237 232 228 234 229 230 230
88 261 183 134 238 134 308 31 242 195 281 284 268 264 273 165 269 325 325 332 331 320 321 323 326 325 327 330 329 327 322 314 313 307 271 251 242 237 241 230 229 230 229 234
306 258 157 179 215 303 183 219 244 301 288 300 293 270 96 279 322 322 322 326 321 318 315 317 316 320 316 316 314 315 315 311 304 302 281 253 245 244 240 239 236 234 230 228
48 286 270 280 68 309 274 289 272 297 291 256 276 275 320 359 319 308 313 315 313 310 318 323 323 320 312 307 306 307 310 312 307 300 290 279 260 246 243 243 235 236 233 232
87 261 263 230 189 200 233 226 264 286 277 266 280 283 331 272 312 317 317 320 317 321 323 319 316 314 311 304 301 302 299 300 304 298 297 280 267 256 245 245 242 242 238 232
223 272 272 285 328 332 273 251 258 266 279 291 285 295 300 311 315 311 312 313 316 316 316 315 316 314 309 306 300 294 293 292 294 294 298 298 284 255 251 245 241 235 235 238
268 266 281 269 281 275 270 278 278 272 275 272 285 291 302 317 321 308 301 314 317 316 314 318 320 318 312 303 296 292 287 292 288 295 300 300 297 285 249 239 232 234 234 237
224 272 278 275 273 267 271 272 266 267 270 273 281 282 335 357 285 294 308 314 316 313 306 308 316 317 315 302 297 283 291 290 296 295 294 295 298 289 267 239 230 230 232 234
267 282 275 272 287 290 273 258 252 265 272 266 275 318 322 307 312 314 315 311 314 315 307 305 310 305 306 299 301 306 304 296 290 295 296 304 296 290 261 243 219 223 228 232
266 260 278 272 279 262 274 8 299 278 280 282 280 304 326 309 310 308 303 308 311 310 304 304 305 300 294 298 309 317 307 303 290 298 298 298 291 326 302 251 230 202 205 216
241 255 261 254 255 278 283 248 242 265 273 344 290 290 304 311 308 291 331 308 307 303 298 297 293 295 278 284 287 316 313 318 321 312 317 325 330 317 309 295 228 215 219 226
212 243 259 259 272 282 27 95 75 336 269 139 280 311 319 313 296 321 332 313 306 302 297 294 282 267 256 273 292 319 305 340 342 330 3 21 19 20 1 342 291 229 198 200
217 230 243 249 251 272 52 117 162 245 32 342 326 311 309 304 309 311 309 308 306 301 297 284 261 258 239 240 216 173 195 275 328 34 43 38 33 22 16 12 15 294 201 176
241 247 238 231 263 257 97 160 248 346 318 314 304 300 307 303 307 310 311 311 310 302 293 266 242 235 225 201 190 213 229 227 5 10 7 21 27 34 25 20 39 55 121 170
249 249 285 283 310 55 306 297 294 298 295 291 299 304 307 307 312 316 313 316 315 304 281 235 228 214 201 190 186 260 257 254 282 337 331 353 21 32 38 42 43 50 70 88
243 236 253 257 239 262 307 300 300 305 294 291 299 303 307 309 315 313 313 317 313 310 271 233 214 204 195 198 195 274 270 274 293 317 319 322 354 29 61 64 71 73 75 80
290 177 257 260 264 273 279 298 313 300 291 290 298 301 304 309 310 312 313 314 307 306 282 240 218 221 220 218 224 252 278 296 309 311 301 306 294 352 31 68 90 77 88 106
262 260 257 267 295 303 292 291 304 298 294 298 302 304 305 304 306 309 308 312 314 308 297 263 225 213 218 220 211 239 260 262 277 312 306 288 245 267 266 316 42 93 96 90
Height
1506 1500 1496 1494 1495 1496 1498 1497 1496 1490 1491 1491 1488 1487 1486 1487 1486 1486 1486 1486 1486 1487 1490 1494 1498 1501 1505 1509 1510 1512 1515 1517 1520 1523 1527 1531 1533 1537 1540 1543 1545 1547 1549 1552
1504 1498 1494 1497 1497 1498 1496 1496 1491 1488 1490 1490 1484 1487 1485 1487 1489 1490 1488 1490 1489 1489 1492 1494 1498 1502 1504 1506 1509 1510 1511 1512 1514 1518 1523 1529 1533 1535 1536 1538 1540 1542 1544 1547
1497 1495 1499 1499 1496 1499 1493 1494 1491 1494 1487 1484 1486 1486 1485 1484 1486 1488 1489 1492 1493 1494 1494 1496 1498 1501 1503 1504 1506 1506 1508 1509 1511 1518 1521 1524 1528 1531 1531 1530 1532 1534 1537 1540
1497 1497 1498 1495 1496 1494 1491 1492 1493 1494 1493 1492 1484 1495 1482 1483 1482 1484 1488 1491 1493 1496 1497 1497 1497 1499 1501 1502 1503 1503 1504 1503 1507 1512 1515 1515 1511 1519 1523 1524 1526 1528 1531 1534
1498 1497 1496 1496 1499 1495 1497 1493 1492 1491 1491 1491 1483 1493 1474 1478 1483 1482 1487 1491 1494 1496 1498 1498 1497 1496 1496 1497 1498 1498 1499 1499 1502 1506 1508 1508 1509 1516 1518 1518 1521 1523 1525 1528
1494 1498 1497 1493 1497 1497 1496 1493 1490 1487 1484 1497 1482 1492 1480 1475 1481 1484 1488 1492 1494 1496 1497 1498 1498 1498 1497 1497 1495 1493 1494 1495 1496 1499 1501 1502 1505 1509 1514 1513 1515 1519 1522 1522
1494 1493 1495 1496 1495 1493 1491 1487 1496 1500 1493 1496 1487 1495 1482 1479 1484 1488 1491 1492 1494 1495 1496 1497 1497 1497 1496 1496 1494 1493 1492 1492 1493 1493 1494 1495 1497 1501 1504 1507 1510 1514 1516 1518
1496 1503 1494 1496 1495 1498 1496 1496 1505 1523 1509 1495 1487 1499 1480 1485 1489 1491 1493 1494 1494 1495 1495 1495 1496 1495 1494 1493 1491 1489 1488 1488 1487 1486 1485 1486 1488 1491 1495 1498 1503 1506 1509 1511
1496 1497 1495 1497 1497 1498 1497 1501 1494 1501 1491 1504 1485 1479 1478 1484 1486 1488 1489 1491 1493 1494 1494 1494 1493 1492 1491 1490 1487 1485 1484 1482 1481 1480 1477 1477 1480 1483 1486 1489 1492 1498 1501 1505
1494 1502 1491 1497 1499 1499 1498 1496 1501 1493 1518 1514 1488 1495 1490 1485 1485 1486 1488 1490 1492 1493 1492 1491 1491 1490 1488 1486 1485 1482 1480 1478 1476 1474 1473 1473 1474 1476 1478 1482 1483 1488 1493 1496
1491 1496 1495 1497 1495 1492 1496 1496 1499 1496 1499 1506 1505 1489 1477 1484 1484 1486 1487 1489 1492 1492 1491 1490 1489 1487 1486 1484 1482 1480 1477 1475 1473 1470 1468 1468 1470 1471 1472 1473 1474 1480 1485 1488
1495 1492 1498 1491 1493 1497 1495 1492 1495 1503 1505 1494 1502 1498 1475 1482 1487 1488 1487 1488 1489 1490 1488 1486 1485 1483 1482 1480 1478 1476 1473 1471 1469 1466 1465 1463 1463 1463 1465 1465 1468 1473 1476 1479
1496 1496 1504 1495 1493 1495 1496 1492 1495 1498 1500 1506 1505 1492 1474 1480 1482 1485 1490 1489 1488 1486 1484 1483 1482 1480 1478 1477 1474 1472 1470 1468 1466 1463 1461 1460 1459 1458 1457 1459 1462 1466 1468 1471
1504 1498 1505 1503 1494 1492 1499 1495 1493 1495 1503 1493 1487 1481 1477 1478 1480 1484 1488 1488 1486 1484 1482 1479 1478 1475 1473 1471 1469 1467 1466 1465 1462 1458 1456 1454 1452 1453 1453 1454 1456 1458 1461 1463
1500 1505 1498 1496 1494 1495 1496 1495 1492 1493 1490 1493 1485 1483 1478 1479 1482 1486 1487 1485 1483 1480 1478 1476 1474 1471 1469 1467 1465 1463 1462 1460 1458 1454 1452 1450 1447 1445 1444 1446 1448 1452 1454 1455
1499 1504 1501 1502 1495 1494 1496 1490 1488 1486 1483 1479 1478 1480 1473 1483 1485 1483 1483 1482 1480 1477 1475 1473 1471 1468 1466 1463 1460 1458 1457 1457 1454 1452 1449 1446 1443 1441 1438 1438 1440 1443 1445 1447
1501 1500 1502 1502 1491 1494 1501 1483 1478 1477 1474 1476 1481 1474 1478 1481 1482 1482 1481 1480 1477 1475 1473 1470 1468 1465 1462 1460 1457 1455 1454 1452 1451 1448 1446 1443 1440 1439 1436 1436 1436 1436 1437 1440
1502 1504 1501 1500 1496 1508 1477 1476 1477 1479 1474 1474 1476 1477 1482 1483 1483 1482 1480 1479 1476 1473 1470 1468 1465 1461 1458 1457 1454 1452 1451 1448 1447 1445 1443 1441 1439 1437 1436 1435 1433 1431 1433 1435
1497 1498 1496 1500 1487 1475 1473 1468 1480 1478 1477 1473 1479 1481 1480 1481 1482 1475 1474 1476 1474 1471 1467 1464 1461 1456 1454 1453 1450 1449 1449 1447 1444 1443 1442 1439 1436 1435 1435 1435 1432 1431 1430 1433
1495 1498 1496 1488 1498 1496 1473 1478 1482 1483 1481 1472 1480 1481 1479 1479 1475 1469 1473 1473 1469 1466 1462 1459 1456 1453 1450 1449 1446 1443 1448 1445 1444 1442 1440 1437 1436 1434 1433 1431 1428 1428 1426 1427
1492 1494 1494 1486 1488 1480 1472 1480 1484 1489 1485 1478 1480 1480 1479 1477 1476 1474 1471 1467 1464 1460 1457 1454 1451 1449 1448 1446 1445 1445 1447 1445 1445 1442 1439 1437 1435 1434 1432 1430 1427 1424 1424 1425
1486 1487 1482 1483 1487 1487 1476 1481 1485 1477 1478 1477 1478 1477 1476 1475 1473 1470 1466 1463 1458 1455 1451 1448 1447 1446 1445 1444 1444 1445 1446 1445 1443 1443 1442 1440 1437 1436 1434 1432 1427 1425 1426 1427
1488 1481 1479 1478 1475 1479 1480 1481 1480 1479 1478 1476 1475 1474 1473 1471 1468 1465 1462 1458 1454 1450 1447 1445 1445 1444 1443 1443 1443 1444 1444 1443 1442 1442 1442 1441 1440 1438 1436 1434 1430 1430 1429 1427
1476 1481 1482 1479 1476 1476 1477 1478 1477 1476 1475 1473 1472 1471 1469 1467 1465 1462 1458 1454 1449 1445 1443 1442 1442 1441 1441 1441 1441 1443 1443 1441 1441 1441 1442 1441 1441 1441 1440 1440 1437 1436 1434 1432
1475 1481 1477 1475 1476 1476 1475 1474 1475 1473 1472 1471 1470 1468 1466 1464 1461 1459 1455 1451 1446 1441 1439 1439 1438 1439 1439 1439 1440 1441 1441 1442 1442 1441 1441 1440 1441 1440 1440 1439 1437 1436 1435 1435
1477 1474 1473 1469 1471 1472 1473 1474 1473 1472 1469 1468 1466 1465 1463 1461 1458 1455 1452 1449 1445 1439 1436 1435 1436 1437 1437 1438 1439 1440 1440 1441 1441 1440 1441 1440 1440 1440 1439 1439 1438 1437 1437 1437